User: anonymous   Login
Location: Deep South Regional Star Gaze
(30.9929°N, 90.9586°W)
Time: 22:57:33
(UTC-05:00)
Language:

H-2A R/B - Orbit

View from above orbital plane
View from above orbital plane
View from above satellite
View from above satellite

Ground track
Ground track

The orbit data is extracted from the following two-line orbital elements,

1 26899U 01038B   17290.14453607 +.00000729 +00000-0 +23386-3 0  9998
2 26899 028.4525 015.7182 7116100 268.8257 016.4853 02.48189790139514
Epoch (UTC): 17 October 2017 03:28:07
Eccentricity: 0.7116100
inclination: 28.4525°
perigee height: 267 km
apogee height: 33063 km
right ascension of ascending node: 15.7182°
argument of perigee: 268.8257°
revolutions per day: 2.48189790
mean anomaly at epoch: 16.4853°
orbit number at epoch: 13951

The dashed part of the orbit path shows where the satellite is in the earth's shadow,  

DLR